リニア彗星

C/2007 JA21 ( LINEAR )

English version
Home page
Total 6,336 html files since Dec. 4, 1995
Updated on April 26, 2008

---------------------------------------------------------------------

・ プロフィール

発見日 2007年5月11日
発見光度 19.9等
発見者 Lincoln Laboratory Near-Earth Asteroid Research project

・ 軌道要素

Epoch 2006 Nov. 1.0 TT = JDT 2454040.5
T 2006 Nov. 14.66428 TT                                 MPC
q   5.3687340            (2000.0)            P               Q
z  -0.0003909      Peri.   93.73250     -0.02951803     -0.41325656
 +/-0.0000332      Node    65.52466     -0.45022739     -0.80744044
e   1.0020986      Incl.   89.83928     +0.89242590     -0.42102131

・ 光度変化

        m1 = 7.8 + 5 logΔ + 10.0 log r

---------------------------------------------------------------------

軌道要素はM.P.E.C. 2007-O22に掲載されたものです。
光度グラフはComet for Windowsで作成したものです。

---------------------------------------------------------------------

Copyright(C) 1995-2008 Seiichi Yoshida (comet@aerith.net). All rights reserved.